User: anonymous   Login
Location: Mentone
(34.5413°N, 85.5351°W)
Time: 18:07:07
(UTC-06:00)
Language:

Cosmos 2150 Rocket - Orbit

View from above orbital plane
View from above orbital plane
View from above satellite
View from above satellite

Ground track
Ground track

The orbit data is extracted from the following two-line orbital elements,

1 21419U 91041B   18020.86128370 +.00000055 +00000-0 +28670-4 0  9995
2 21419 074.0395 261.4075 0040344 136.6275 223.8064 14.33883570391401
Epoch (UTC): 20 January 2018 20:40:14
Eccentricity: 0.0040344
inclination: 74.0395°
perigee height: 750 km
apogee height: 807 km
right ascension of ascending node: 261.4075°
argument of perigee: 136.6275°
revolutions per day: 14.33883570
mean anomaly at epoch: 223.8064°
orbit number at epoch: 39140

The dashed part of the orbit path shows where the satellite is in the earth's shadow,  

DLR